Location: Jangalapalle
(16.8036°N, 80.6370°E)
Time: 11:15:35
(UTC+00:00)

Cosmos 1745 Rocket - Pass Details

Date: 05 August 2024
Orbit: 951 x 998 km, 83.0° (Epoch: 08 September)

Event Time Altitude Azimuth Distance (km) Brightness Sun altitude
Rises 23:20:54 0° 347° (NNW) 3,622 7.1 -13.9°
Reaches altitude 10° 23:23:26 10° 343° (NNW) 2,679 6.4 -13.3°
Maximum altitude 23:29:21 52° 268° (W) 1,176 4.1 -12.0°
Drops below altitude 10° 23:35:18 10° 193° (SSW) 2,699 6.0 -10.7°
Sets 23:37:53 0° 189° (S) 3,652 6.7 -10.1°
